Location: Alsip
(41.6689°N, 87.7387°W)
Time: 18:12:07
(UTC+00:00)

STARLINK-2731 - Pass Details

Date: 02 August 2021
Orbit: 546 x 548 km, 53.1° (Epoch: 22 September)

Event Time Altitude Azimuth Distance (km) Brightness Sun altitude
Rises 01:30:28 0° 306° (NW) 2,725 9.7 -4.5°
Reaches altitude 10° 01:32:43 10° 305° (NW) 1,827 8.2 -4.9°
Maximum altitude 01:36:51 74° 221° (SW) 575 3.8 -5.6°
Drops below altitude 10° 01:40:58 10° 136° (SE) 1,815 5.6 -6.2°
Enters shadow 01:41:34 - 135° (SE) 2,051 5.9 -6.3°
